Weather in Fribourg

Switzerland     46°48′24″N   7°09′40″E
temp.,
°C
wind,
m/s
gust,
m/s
humid.,
%
clouds,
%
prec.,
mm/h
press.,
hPa
HPBL,
m
6 may, thu
thu623:00+4sw3776100 0.0 1017273
02:00+3s2480100 0.0 101686
05:00+2s2280100 0.0 101445
08:00+5sw1371100 0.1 1013130
11:00+7sw3661100 0.1 1011932
14:00+6ssw31091100 1.3 1010935
17:00+6ssw41595100 4.3 10101363
20:00+6ssw41297100 12.4 10101134
7 may, fri
fri723:00+6sw61494100 4.6 10121133
02:00+4ssw41195100 9.6 1013885
05:00+3ssw41196100 2.3 1014753
08:00+4sw4896100 2.8 1015669
11:00+4wsw4998100 0.8 10161031
14:00+3wnw13100100 4.9 1019366
17:00+4ese019890 1.1 1019195
20:00+5n019593 1.4 102095
8 may, sat
sat823:00+2sse119515 0.0 102112
02:00+2s229422 0.0 102119
05:00+1sse2293100 0.0 102121
08:00+4s118722 0.0 102073
11:00+11wnw13577 0.0 1018770
14:00+15wnw244350 0.0 10161161
17:00+16w13485 0.0 1015947
20:00+11sse22805 0.0 101530
9 may, sun
sun923:00+7sse337084 0.0 101635
02:00+6sse22665 0.0 101523
05:00+6sse22685 0.0 101422
08:00+10s126695 0.0 101256
11:00+17wnw1250100 0.0 1010487
14:00+20nnw1246100 0.0 1009920
17:00+20ssw014921 0.0 1008689
20:00+13sse347882 0.0 1009109
10 may, mon
mon1023:00+9sse347197 0.0 101081
02:00+7s338033 0.0 101051
05:00+8sse227980 0.0 101135
08:00+10s117444 0.0 1009120
11:00+13wsw2468100 0.0 1010561
14:00+11ese1294100 1.8 1009321
17:00+13w237971 0.6 1008730
20:00+11nne119472 0.8 100898